Location: Paddlesworth
(51.1000°N, 1.1333°E)
Time: 22:57:58
(UTC+00:00)

Terra - Pass Details

Date: 11 May 2021
Orbit: 701 x 703 km, 98.2° (Epoch: 24 June)

Event Time Altitude Azimuth Distance (km) Brightness Sun altitude
Exits shadow 23:11:39 11° 238° (WSW) 2,101 4.1 -20.2°
Maximum altitude 23:14:12 16° 272° (W) 1,813 4.1 -20.3°
Drops below altitude 10° 23:17:06 10° 310° (NW) 2,182 5.0 -20.3°
Sets 23:20:15 0° 332° (NNW) 3,106 6.4 -20.4°
